Tracking 28052 objects as of 22-Sep-2023
HD Live streaming from Space Station
objects crossing your sky now

COSMOS 1275 DEB

Track COSMOS 1275 DEB now!
10-day predictions


NORAD ID: 14406
Int'l Code: 1981-053JE
Perigee: 841.4 km
Apogee: 875.9 km
Inclination: 82.8 °
Period: 102.0 minutes
Semi major axis: 7229 km
RCS: 0.0178 m2 (small)
Launch date: June 4, 1981
Source: Commonwealth of Independent States (former USSR) (CIS)
Launch site: PLESETSK MISSILE AND SPACE COMPLEX (PKMTR)

Note: This is SATELLITE DEBRIS
Your satellite tracking list
Your tracking list is empty




NASA's NSSDC Master Catalog

Two Line Element Set (TLE):
1 14406U 81053JB  23264.60504512  .00003047  00000-0  16437-2 0  9999
2 14406  82.8388 111.3687 0023885 318.0848 105.7493 14.12295334 80202
Source of the keplerian elements: AFSPC